"Sample Date","Sample Time","Sample Value","Units","Flow Rate","Laser Status","Micron Size 0","Counts/Channel 0","Micron Size 1","Counts/Channel 1","Micron Size 2","Counts/Channel 2","Micron Size 3","Counts/Channel 3","Micron Size 4","Counts/Channel 4","Micron Size 5","Counts/Channel 5","Micron Size 6","Counts/Channel 6","Micron Size 7","Counts/Channel 7","Micron Size 8","Counts/Channel 8","Micron Size 9","Counts/Channel 9","Micron Size 10","Counts/Channel 10","Micron Size 11","Counts/Channel 11","Micron Size 12","Counts/Channel 12","Micron Size 13","Counts/Channel 13","Micron Size 14","Counts/Channel 14","Micron Size 15","Counts/Channel 15","Micron Size 16","Counts/Channel 16","Micron Size 17","Counts/Channel 17","Micron Size 18","Counts/Channel 18","Micron Size 19","Counts/Channel 19","Micron Size 20","Counts/Channel 20","Micron Size 21","Counts/Channel 21","Micron Size 22","Counts/Channel 22","Micron Size 23","Counts/Channel 23","Micron Size 24","Counts/Channel 24","Micron Size 25","Counts/Channel 25","Micron Size 26","Counts/Channel 26","Micron Size 27","Counts/Channel 27","Micron Size 28","Counts/Channel 28","Micron Size 29","Counts/Channel 29","Micron Size 30","Counts/Channel 30","Micron Size 31","Counts/Channel 31"
"03/02/08","01:00:04",20205.000,"cc",28292.539,1,0.100,18100.000,0.200,727.000,0.300,487.000,0.500,608.000,1.000,283.000,5.000,0
"03/02/08","01:00:10",20211.000,"cc",28308.326,1,0.100,18046.000,0.200,783.000,0.300,475.000,0.500,633.000,1.000,274.000,5.000,0
"03/02/08","01:00:16",19972.000,"cc",28322.041,1,0.100,17899.000,0.200,738.000,0.300,496.000,0.500,580.000,1.000,259.000,5.000,0
"03/02/08","01:00:22",20090.000,"cc",28325.924,1,0.100,17904.000,0.200,781.000,0.300,508.000,0.500,600.000,1.000,297.000,5.000,0
"03/02/08","01:00:28",20213.000,"cc",28318.131,1,0.100,18017.000,0.200,753.000,0.300,496.000,0.500,641.000,1.000,306.000,5.000,0
"03/02/08","01:00:34",20403.000,"cc",28335.322,1,0.100,18239.000,0.200,828.000,0.300,493.000,0.500,584.000,1.000,259.000,5.000,0
"03/02/08","01:00:40",20380.000,"cc",28330.797,1,0.100,18281.000,0.200,758.000,0.300,484.000,0.500,598.000,1.000,259.000,5.000,0
"03/02/08","01:00:46",20081.000,"cc",28343.397,1,0.100,17921.000,0.200,750.000,0.300,514.000,0.500,601.000,1.000,295.000,5.000,0
"03/02/08","01:00:52",20152.000,"cc",28253.455,1,0.100,17999.000,0.200,740.000,0.300,499.000,0.500,633.000,1.000,281.000,5.000,0
"03/02/08","01:00:58",20250.000,"cc",28306.570,1,0.100,18102.000,0.200,762.000,0.300,533.000,0.500,584.000,1.000,269.000,5.000,0
"03/02/08","01:01:04",20061.000,"cc",28375.195,1,0.100,17918.000,0.200,777.000,0.300,484.000,0.500,597.000,1.000,285.000,5.000,0
"03/02/08","01:01:10",20322.000,"cc",28317.231,1,0.100,18147.000,0.200,805.000,0.300,508.000,0.500,579.000,1.000,283.000,5.000,0
"03/02/08","01:01:16",20123.000,"cc",28341.654,1,0.100,17913.000,0.200,827.000,0.300,510.000,0.500,598.000,1.000,275.000,5.000,0
"03/02/08","01:01:22",20174.000,"cc",28241.580,1,0.100,18003.000,0.200,828.000,0.300,498.000,0.500,593.000,1.000,252.000,5.000,0
"03/02/08","01:01:28",20119.000,"cc",28263.926,1,0.100,17993.000,0.200,740.000,0.300,489.000,0.500,603.000,1.000,294.000,5.000,0
"03/02/08","01:01:34",20047.000,"cc",28292.869,1,0.100,18002.000,0.200,728.000,0.300,477.000,0.500,557.000,1.000,283.000,5.000,0
"03/02/08","01:01:40",20374.000,"cc",28335.174,1,0.100,18195.000,0.200,789.000,0.300,467.000,0.500,635.000,1.000,288.000,5.000,0
"03/02/08","01:01:46",19963.000,"cc",28283.180,1,0.100,17867.000,0.200,746.000,0.300,489.000,0.500,609.000,1.000,252.000,5.000,0
"03/02/08","01:01:52",20069.000,"cc",28363.268,1,0.100,17889.000,0.200,783.000,0.300,482.000,0.500,633.000,1.000,282.000,5.000,0
"03/02/08","01:01:58",20124.000,"cc",28372.137,1,0.100,17923.000,0.200,776.000,0.300,508.000,0.500,638.000,1.000,279.000,5.000,0
"03/02/08","01:02:04",20073.000,"cc",28312.959,1,0.100,17851.000,0.200,855.000,0.300,490.000,0.500,596.000,1.000,281.000,5.000,0
"03/02/08","01:02:10",20242.000,"cc",28310.844,1,0.100,18113.000,0.200,727.000,0.300,528.000,0.500,580.000,1.000,294.000,5.000,0
"03/02/08","01:02:16",20137.000,"cc",28362.584,1,0.100,18003.000,0.200,772.000,0.300,467.000,0.500,613.000,1.000,282.000,5.000,0
"03/02/08","01:02:22",20088.000,"cc",28299.715,1,0.100,18007.000,0.200,770.000,0.300,471.000,0.500,572.000,1.000,268.000,5.000,0
"03/02/08","01:02:28",20275.000,"cc",28286.098,1,0.100,18109.000,0.200,766.000,0.300,519.000,0.500,607.000,1.000,274.000,5.000,0
"03/02/08","01:02:34",20154.000,"cc",28317.994,1,0.100,18042.000,0.200,777.000,0.300,495.000,0.500,587.000,1.000,253.000,5.000,0
"03/02/08","01:02:40",20316.000,"cc",28359.193,1,0.100,18195.000,0.200,748.000,0.300,478.000,0.500,601.000,1.000,294.000,5.000,0
"03/02/08","01:02:46",20082.000,"cc",28293.141,1,0.100,18008.000,0.200,722.000,0.300,508.000,0.500,598.000,1.000,246.000,5.000,0
"03/02/08","01:02:52",20432.000,"cc",28283.912,1,0.100,18240.000,0.200,763.000,0.300,539.000,0.500,622.000,1.000,268.000,5.000,0
"03/02/08","01:02:58",20495.000,"cc",28383.797,1,0.100,18434.000,0.200,767.000,0.300,456.000,0.500,557.000,1.000,281.000,5.000,0
"03/02/08","01:03:04",20402.000,"cc",28303.834,1,0.100,18264.000,0.200,759.000,0.300,505.000,0.500,577.000,1.000,297.000,5.000,0
"03/02/08","01:03:10",20303.000,"cc",28292.412,1,0.100,18142.000,0.200,812.000,0.300,514.000,0.500,564.000,1.000,271.000,5.000,0
"03/02/08","01:03:16",20171.000,"cc",28237.930,1,0.100,18050.000,0.200,758.000,0.300,462.000,0.500,611.000,1.000,290.000,5.000,0
"03/02/08","01:03:22",20129.000,"cc",28400.346,1,0.100,18036.000,0.200,746.000,0.300,437.000,0.500,635.000,1.000,275.000,5.000,0
"03/02/08","01:03:28",20151.000,"cc",28316.578,1,0.100,18066.000,0.200,757.000,0.300,513.000,0.500,566.000,1.000,249.000,5.000,0
"03/02/08","01:03:34",20096.000,"cc",28305.801,1,0.100,17949.000,0.200,786.000,0.300,486.000,0.500,613.000,1.000,262.000,5.000,0
"03/02/08","01:03:40",20610.000,"cc",28238.512,1,0.100,18471.000,0.200,742.000,0.300,515.000,0.500,617.000,1.000,265.000,5.000,0
"03/02/08","01:03:46",20222.000,"cc",28337.973,1,0.100,18075.000,0.200,747.000,0.300,516.000,0.500,611.000,1.000,273.000,5.000,0
"03/02/08","01:03:52",20190.000,"cc",28339.549,1,0.100,18187.000,0.200,707.000,0.300,476.000,0.500,558.000,1.000,262.000,5.000,0
"03/02/08","01:03:58",20289.000,"cc",28286.016,1,0.100,18225.000,0.200,746.000,0.300,485.000,0.500,584.000,1.000,249.000,5.000,0
"03/02/08","01:04:04",20208.000,"cc",28345.301,1,0.100,18099.000,0.200,784.000,0.300,490.000,0.500,580.000,1.000,255.000,5.000,0
"03/02/08","01:04:10",20078.000,"cc",28363.309,1,0.100,18061.000,0.200,713.000,0.300,496.000,0.500,545.000,1.000,263.000,5.000,0
"03/02/08","01:04:16",20295.000,"cc",28330.482,1,0.100,18157.000,0.200,751.000,0.300,506.000,0.500,629.000,1.000,252.000,5.000,0
"03/02/08","01:04:22",20169.000,"cc",28282.565,1,0.100,18075.000,0.200,749.000,0.300,502.000,0.500,584.000,1.000,259.000,5.000,0
"03/02/08","01:04:28",20194.000,"cc",28271.063,1,0.100,18161.000,0.200,722.000,0.300,513.000,0.500,539.000,1.000,259.000,5.000,0
"03/02/08","01:04:34",20608.000,"cc",28377.215,1,0.100,18561.000,0.200,732.000,0.300,500.000,0.500,560.000,1.000,255.000,5.000,0
"03/02/08","01:04:40",20155.000,"cc",28323.686,1,0.100,18033.000,0.200,769.000,0.300,513.000,0.500,581.000,1.000,259.000,5.000,0
"03/02/08","01:04:46",20730.000,"cc",28315.631,1,0.100,18585.000,0.200,767.000,0.300,510.000,0.500,594.000,1.000,274.000,5.000,0
"03/02/08","01:04:52",20438.000,"cc",28370.777,1,0.100,18329.000,0.200,771.000,0.300,486.000,0.500,590.000,1.000,262.000,5.000,0
"03/02/08","01:04:58",20215.000,"cc",28297.371,1,0.100,18042.000,0.200,816.000,0.300,481.000,0.500,590.000,1.000,286.000,5.000,0
"03/02/08","01:05:04",20168.000,"cc",28274.066,1,0.100,18109.000,0.200,720.000,0.300,503.000,0.500,580.000,1.000,256.000,5.000,0
"03/02/08","01:05:10",20641.000,"cc",28279.316,1,0.100,18425.000,0.200,819.000,0.300,542.000,0.500,589.000,1.000,266.000,5.000,0
"03/02/08","01:05:16",20501.000,"cc",28366.822,1,0.100,18305.000,0.200,791.000,0.300,524.000,0.500,615.000,1.000,266.000,5.000,0
"03/02/08","01:05:22",20480.000,"cc",28352.820,1,0.100,18276.000,0.200,809.000,0.300,479.000,0.500,612.000,1.000,304.000,5.000,0
"03/02/08","01:05:28",20579.000,"cc",28222.451,1,0.100,18521.000,0.200,723.000,0.300,483.000,0.500,571.000,1.000,281.000,5.000,0
"03/02/08","01:05:34",20342.000,"cc",28359.648,1,0.100,18299.000,0.200,723.000,0.300,490.000,0.500,577.000,1.000,253.000,5.000,0
"03/02/08","01:05:40",20390.000,"cc",28321.561,1,0.100,18290.000,0.200,771.000,0.300,461.000,0.500,609.000,1.000,259.000,5.000,0
"03/02/08","01:05:46",20315.000,"cc",28341.904,1,0.100,18231.000,0.200,744.000,0.300,493.000,0.500,572.000,1.000,275.000,5.000,0
"03/02/08","01:05:52",20279.000,"cc",28315.523,1,0.100,18099.000,0.200,810.000,0.300,521.000,0.500,549.000,1.000,300.000,5.000,0
"03/02/08","01:05:58",20599.000,"cc",28262.135,1,0.100,18477.000,0.200,794.000,0.300,501.000,0.500,554.000,1.000,273.000,5.000,0
"03/02/08","01:06:04",20561.000,"cc",28324.783,1,0.100,18453.000,0.200,725.000,0.300,492.000,0.500,619.000,1.000,272.000,5.000,0
"03/02/08","01:06:10",20590.000,"cc",28360.906,1,0.100,18441.000,0.200,745.000,0.300,506.000,0.500,595.000,1.000,303.000,5.000,0
"03/02/08","01:06:16",20401.000,"cc",28346.248,1,0.100,18223.000,0.200,789.000,0.300,498.000,0.500,623.000,1.000,268.000,5.000,0
"03/02/08","01:06:22",20616.000,"cc",28353.609,1,0.100,18440.000,0.200,763.000,0.300,497.000,0.500,650.000,1.000,266.000,5.000,0
"03/02/08","01:06:28",20271.000,"cc",28300.180,1,0.100,18139.000,0.200,763.000,0.300,514.000,0.500,592.000,1.000,263.000,5.000,0
"03/02/08","01:06:34",20806.000,"cc",28310.459,1,0.100,18728.000,0.200,724.000,0.300,490.000,0.500,590.000,1.000,274.000,5.000,0
"03/02/08","01:06:40",20322.000,"cc",28313.565,1,0.100,18186.000,0.200,760.000,0.300,491.000,0.500,584.000,1.000,301.000,5.000,0
"03/02/08","01:06:46",20592.000,"cc",28318.340,1,0.100,18462.000,0.200,756.000,0.300,506.000,0.500,587.000,1.000,281.000,5.000,0
"03/02/08","01:06:52",20537.000,"cc",28277.906,1,0.100,18410.000,0.200,735.000,0.300,497.000,0.500,628.000,1.000,267.000,5.000,0
"03/02/08","01:06:58",20537.000,"cc",28330.850,1,0.100,18426.000,0.200,755.000,0.300,465.000,0.500,599.000,1.000,292.000,5.000,0
"03/02/08","01:07:04",20389.000,"cc",28303.686,1,0.100,18215.000,0.200,830.000,0.300,529.000,0.500,547.000,1.000,268.000,5.000,0
"03/02/08","01:07:10",20821.000,"cc",28327.998,1,0.100,18637.000,0.200,759.000,0.300,489.000,0.500,654.000,1.000,282.000,5.000,0
"03/02/08","01:07:16",20725.000,"cc",28328.484,1,0.100,18554.000,0.200,788.000,0.300,493.000,0.500,627.000,1.000,263.000,5.000,0
"03/02/08","01:07:22",20743.000,"cc",28324.080,1,0.100,18633.000,0.200,775.000,0.300,461.000,0.500,588.000,1.000,286.000,5.000,0
"03/02/08","01:07:28",20627.000,"cc",28320.938,1,0.100,18594.000,0.200,719.000,0.300,481.000,0.500,580.000,1.000,253.000,5.000,0
"03/02/08","01:07:34",20795.000,"cc",28286.553,1,0.100,18647.000,0.200,811.000,0.300,493.000,0.500,584.000,1.000,260.000,5.000,0
"03/02/08","01:07:40",20917.000,"cc",28275.752,1,0.100,18815.000,0.200,754.000,0.300,503.000,0.500,567.000,1.000,278.000,5.000,0
"03/02/08","01:07:46",20728.000,"cc",28328.428,1,0.100,18641.000,0.200,743.000,0.300,486.000,0.500,589.000,1.000,269.000,5.000,0
"03/02/08","01:07:52",20830.000,"cc",28277.504,1,0.100,18758.000,0.200,753.000,0.300,470.000,0.500,589.000,1.000,260.000,5.000,0
"03/02/08","01:07:58",20854.000,"cc",28341.854,1,0.100,18743.000,0.200,774.000,0.300,505.000,0.500,576.000,1.000,256.000,5.000,0
"03/02/08","01:08:04",20639.000,"cc",28427.055,1,0.100,18514.000,0.200,751.000,0.300,485.000,0.500,584.000,1.000,305.000,5.000,0
"03/02/08","01:08:10",20506.000,"cc",28333.428,1,0.100,18425.000,0.200,766.000,0.300,464.000,0.500,566.000,1.000,285.000,5.000,0
"03/02/08","01:08:16",20887.000,"cc",28286.783,1,0.100,18777.000,0.200,732.000,0.300,517.000,0.500,624.000,1.000,237.000,5.000,0
"03/02/08","01:08:22",20961.000,"cc",28277.850,1,0.100,18811.000,0.200,774.000,0.300,516.000,0.500,608.000,1.000,252.000,5.000,0
"03/02/08","01:08:28",20780.000,"cc",28286.859,1,0.100,18749.000,0.200,740.000,0.300,452.000,0.500,565.000,1.000,274.000,5.000,0
"03/02/08","01:08:34",20853.000,"cc",28333.740,1,0.100,18749.000,0.200,757.000,0.300,488.000,0.500,584.000,1.000,275.000,5.000,0
"03/02/08","01:08:40",20848.000,"cc",28371.432,1,0.100,18853.000,0.200,720.000,0.300,478.000,0.500,535.000,1.000,262.000,5.000,0
"03/02/08","01:08:46",20996.000,"cc",28325.190,1,0.100,18896.000,0.200,760.000,0.300,458.000,0.500,624.000,1.000,258.000,5.000,0
"03/02/08","01:08:52",21056.000,"cc",28293.270,1,0.100,18867.000,0.200,805.000,0.300,511.000,0.500,606.000,1.000,267.000,5.000,0
"03/02/08","01:08:58",21133.000,"cc",28291.039,1,0.100,19081.000,0.200,763.000,0.300,458.000,0.500,562.000,1.000,269.000,5.000,0
"03/02/08","01:09:04",20756.000,"cc",28378.988,1,0.100,18713.000,0.200,703.000,0.300,490.000,0.500,595.000,1.000,255.000,5.000,0
"03/02/08","01:09:10",21036.000,"cc",28258.494,1,0.100,18819.000,0.200,822.000,0.300,492.000,0.500,631.000,1.000,272.000,5.000,0
"03/02/08","01:09:16",20875.000,"cc",28343.356,1,0.100,18805.000,0.200,785.000,0.300,459.000,0.500,582.000,1.000,244.000,5.000,0
"03/02/08","01:09:22",21011.000,"cc",28367.852,1,0.100,18871.000,0.200,754.000,0.300,525.000,0.500,579.000,1.000,282.000,5.000,0
"03/02/08","01:09:28",20956.000,"cc",28261.082,1,0.100,18755.000,0.200,795.000,0.300,538.000,0.500,623.000,1.000,245.000,5.000,0
"03/02/08","01:09:34",21020.000,"cc",28261.338,1,0.100,18822.000,0.200,786.000,0.300,534.000,0.500,610.000,1.000,268.000,5.000,0
"03/02/08","01:09:40",21080.000,"cc",28299.684,1,0.100,18936.000,0.200,764.000,0.300,479.000,0.500,623.000,1.000,278.000,5.000,0
"03/02/08","01:09:46",21058.000,"cc",28371.596,1,0.100,18952.000,0.200,773.000,0.300,483.000,0.500,578.000,1.000,272.000,5.000,0
"03/02/08","01:09:52",20907.000,"cc",28326.078,1,0.100,18784.000,0.200,777.000,0.300,478.000,0.500,575.000,1.000,293.000,5.000,0
"03/02/08","01:09:58",20745.000,"cc",28315.047,1,0.100,18657.000,0.200,753.000,0.300,512.000,0.500,569.000,1.000,254.000,5.000,0
"03/02/08","01:10:04",20955.000,"cc",28320.219,1,0.100,18837.000,0.200,741.000,0.300,488.000,0.500,616.000,1.000,273.000,5.000,0
"03/02/08","01:10:10",20923.000,"cc",28333.920,1,0.100,18821.000,0.200,782.000,0.300,461.000,0.500,569.000,1.000,290.000,5.000,0
"03/02/08","01:10:16",20871.000,"cc",28331.082,1,0.100,18708.000,0.200,797.000,0.300,488.000,0.500,593.000,1.000,285.000,5.000,0
"03/02/08","01:10:22",20770.000,"cc",28320.377,1,0.100,18732.000,0.200,732.000,0.300,485.000,0.500,560.000,1.000,261.000,5.000,0
"03/02/08","01:10:28",20670.000,"cc",28342.547,1,0.100,18536.000,0.200,744.000,0.300,538.000,0.500,611.000,1.000,241.000,5.000,0
"03/02/08","01:10:34",20810.000,"cc",28243.422,1,0.100,18776.000,0.200,751.000,0.300,439.000,0.500,579.000,1.000,265.000,5.000,0
"03/02/08","01:10:40",20744.000,"cc",28332.123,1,0.100,18636.000,0.200,793.000,0.300,487.000,0.500,543.000,1.000,285.000,5.000,0
"03/02/08","01:10:46",20912.000,"cc",28246.512,1,0.100,18860.000,0.200,718.000,0.300,474.000,0.500,591.000,1.000,269.000,5.000,0
"03/02/08","01:10:52",20529.000,"cc",28315.137,1,0.100,18407.000,0.200,758.000,0.300,483.000,0.500,602.000,1.000,279.000,5.000,0
"03/02/08","01:10:58",20792.000,"cc",28316.754,1,0.100,18681.000,0.200,794.000,0.300,467.000,0.500,573.000,1.000,277.000,5.000,0
"03/02/08","01:11:04",20628.000,"cc",28305.201,1,0.100,18471.000,0.200,798.000,0.300,478.000,0.500,606.000,1.000,275.000,5.000,0
"03/02/08","01:11:10",20598.000,"cc",28336.059,1,0.100,18457.000,0.200,762.000,0.300,474.000,0.500,580.000,1.000,325.000,5.000,0
"03/02/08","01:11:16",20809.000,"cc",28359.022,1,0.100,18755.000,0.200,726.000,0.300,512.000,0.500,556.000,1.000,260.000,5.000,0
"03/02/08","01:11:22",21009.000,"cc",28293.082,1,0.100,18895.000,0.200,784.000,0.300,467.000,0.500,592.000,1.000,271.000,5.000,0
"03/02/08","01:11:28",20953.000,"cc",28311.703,1,0.100,18805.000,0.200,776.000,0.300,530.000,0.500,590.000,1.000,252.000,5.000,0
"03/02/08","01:11:34",20434.000,"cc",28313.145,1,0.100,18397.000,0.200,726.000,0.300,503.000,0.500,556.000,1.000,252.000,5.000,0
"03/02/08","01:11:40",20540.000,"cc",28370.213,1,0.100,18525.000,0.200,766.000,0.300,446.000,0.500,547.000,1.000,256.000,5.000,0
"03/02/08","01:11:46",20546.000,"cc",28312.920,1,0.100,18504.000,0.200,713.000,0.300,452.000,0.500,606.000,1.000,271.000,5.000,0
"03/02/08","01:11:52",20450.000,"cc",28334.957,1,0.100,18338.000,0.200,768.000,0.300,492.000,0.500,580.000,1.000,272.000,5.000,0
"03/02/08","01:11:58",20708.000,"cc",28236.645,1,0.100,18523.000,0.200,802.000,0.300,500.000,0.500,612.000,1.000,271.000,5.000,0
"03/02/08","01:12:04",20579.000,"cc",28318.775,1,0.100,18459.000,0.200,733.000,0.300,527.000,0.500,570.000,1.000,290.000,5.000,0
"03/02/08","01:12:10",20675.000,"cc",28364.049,1,0.100,18545.000,0.200,794.000,0.300,492.000,0.500,584.000,1.000,260.000,5.000,0
"03/02/08","01:12:16",20557.000,"cc",28321.195,1,0.100,18407.000,0.200,768.000,0.300,464.000,0.500,629.000,1.000,289.000,5.000,0
"03/02/08","01:12:22",21078.000,"cc",28294.684,1,0.100,18927.000,0.200,799.000,0.300,477.000,0.500,608.000,1.000,267.000,5.000,0
"03/02/08","01:12:28",20546.000,"cc",28281.000,1,0.100,18461.000,0.200,731.000,0.300,472.000,0.500,603.000,1.000,279.000,5.000,0
"03/02/08","01:12:34",20373.000,"cc",28271.961,1,0.100,18336.000,0.200,778.000,0.300,463.000,0.500,567.000,1.000,229.000,5.000,0
"03/02/08","01:12:40",20767.000,"cc",28386.441,1,0.100,18633.000,0.200,762.000,0.300,525.000,0.500,589.000,1.000,258.000,5.000,0
"03/02/08","01:12:46",20607.000,"cc",28381.793,1,0.100,18453.000,0.200,764.000,0.300,478.000,0.500,628.000,1.000,284.000,5.000,0
"03/02/08","01:12:52",20607.000,"cc",28291.775,1,0.100,18481.000,0.200,750.000,0.300,496.000,0.500,606.000,1.000,274.000,5.000,0
"03/02/08","01:12:58",20601.000,"cc",28299.897,1,0.100,18503.000,0.200,773.000,0.300,471.000,0.500,578.000,1.000,276.000,5.000,0
"03/02/08","01:13:04",20796.000,"cc",28291.475,1,0.100,18649.000,0.200,774.000,0.300,503.000,0.500,590.000,1.000,280.000,5.000,0
"03/02/08","01:13:10",20967.000,"cc",28298.838,1,0.100,18856.000,0.200,760.000,0.300,444.000,0.500,616.000,1.000,291.000,5.000,0
"03/02/08","01:13:16",20828.000,"cc",28302.510,1,0.100,18714.000,0.200,763.000,0.300,462.000,0.500,610.000,1.000,279.000,5.000,0
"03/02/08","01:13:22",20559.000,"cc",28341.938,1,0.100,18343.000,0.200,791.000,0.300,499.000,0.500,629.000,1.000,297.000,5.000,0
"03/02/08","01:13:28",20780.000,"cc",28355.215,1,0.100,18531.000,0.200,836.000,0.300,505.000,0.500,640.000,1.000,268.000,5.000,0
"03/02/08","01:13:34",20514.000,"cc",28309.900,1,0.100,18292.000,0.200,797.000,0.300,510.000,0.500,614.000,1.000,301.000,5.000,0
"03/02/08","01:13:40",20821.000,"cc",28314.217,1,0.100,18676.000,0.200,812.000,0.300,510.000,0.500,573.000,1.000,250.000,5.000,0
"03/02/08","01:13:46",20726.000,"cc",28297.891,1,0.100,18563.000,0.200,788.000,0.300,479.000,0.500,645.000,1.000,251.000,5.000,0
"03/02/08","01:13:52",20863.000,"cc",28333.994,1,0.100,18671.000,0.200,802.000,0.300,539.000,0.500,582.000,1.000,269.000,5.000,0
"03/02/08","01:13:58",20911.000,"cc",28320.592,1,0.100,18822.000,0.200,773.000,0.300,468.000,0.500,569.000,1.000,279.000,5.000,0
"03/02/08","01:14:04",20784.000,"cc",28309.578,1,0.100,18660.000,0.200,807.000,0.300,501.000,0.500,557.000,1.000,259.000,5.000,0
"03/02/08","01:14:10",20752.000,"cc",28311.432,1,0.100,18685.000,0.200,766.000,0.300,467.000,0.500,566.000,1.000,268.000,5.000,0
"03/02/08","01:14:16",20558.000,"cc",28334.285,1,0.100,18468.000,0.200,767.000,0.300,499.000,0.500,572.000,1.000,252.000,5.000,0
"03/02/08","01:14:22",20469.000,"cc",28314.859,1,0.100,18383.000,0.200,749.000,0.300,461.000,0.500,583.000,1.000,293.000,5.000,0
"03/02/08","01:14:28",20812.000,"cc",28303.719,1,0.100,18692.000,0.200,754.000,0.300,442.000,0.500,652.000,1.000,272.000,5.000,0
"03/02/08","01:14:34",20765.000,"cc",28247.293,1,0.100,18537.000,0.200,799.000,0.300,508.000,0.500,613.000,1.000,308.000,5.000,0
"03/02/08","01:14:40",20557.000,"cc",28279.637,1,0.100,18283.000,0.200,803.000,0.300,512.000,0.500,675.000,1.000,284.000,5.000,0
"03/02/08","01:14:46",20668.000,"cc",28437.945,1,0.100,18473.000,0.200,802.000,0.300,482.000,0.500,616.000,1.000,295.000,5.000,0
"03/02/08","01:14:52",20586.000,"cc",28365.584,1,0.100,18462.000,0.200,776.000,0.300,498.000,0.500,589.000,1.000,261.000,5.000,0
"03/02/08","01:14:58",20711.000,"cc",28251.570,1,0.100,18558.000,0.200,771.000,0.300,510.000,0.500,580.000,1.000,292.000,5.000,0
"03/02/08","01:15:04",20742.000,"cc",28288.434,1,0.100,18596.000,0.200,763.000,0.300,521.000,0.500,586.000,1.000,276.000,5.000,0
"03/02/08","01:15:10",20707.000,"cc",28357.695,1,0.100,18560.000,0.200,782.000,0.300,542.000,0.500,581.000,1.000,242.000,5.000,0
"03/02/08","01:15:16",20828.000,"cc",28308.973,1,0.100,18720.000,0.200,733.000,0.300,488.000,0.500,622.000,1.000,265.000,5.000,0
"03/02/08","01:15:22",20893.000,"cc",28331.225,1,0.100,18760.000,0.200,793.000,0.300,487.000,0.500,596.000,1.000,257.000,5.000,0
"03/02/08","01:15:28",20753.000,"cc",28314.242,1,0.100,18573.000,0.200,806.000,0.300,479.000,0.500,625.000,1.000,270.000,5.000,0
"03/02/08","01:15:34",20497.000,"cc",28292.426,1,0.100,18362.000,0.200,764.000,0.300,499.000,0.500,613.000,1.000,259.000,5.000,0
"03/02/08","01:15:40",20633.000,"cc",28293.731,1,0.100,18492.000,0.200,746.000,0.300,483.000,0.500,630.000,1.000,282.000,5.000,0
"03/02/08","01:15:46",20651.000,"cc",28354.977,1,0.100,18411.000,0.200,806.000,0.300,510.000,0.500,650.000,1.000,274.000,5.000,0
"03/02/08","01:15:52",20592.000,"cc",28330.574,1,0.100,18401.000,0.200,803.000,0.300,496.000,0.500,616.000,1.000,276.000,5.000,0
"03/02/08","01:15:58",20445.000,"cc",28333.004,1,0.100,18332.000,0.200,790.000,0.300,459.000,0.500,599.000,1.000,265.000,5.000,0
"03/02/08","01:16:04",20515.000,"cc",28305.473,1,0.100,18404.000,0.200,796.000,0.300,451.000,0.500,583.000,1.000,281.000,5.000,0
"03/02/08","01:16:10",20515.000,"cc",28277.406,1,0.100,18421.000,0.200,779.000,0.300,501.000,0.500,571.000,1.000,243.000,5.000,0
"03/02/08","01:16:16",20509.000,"cc",28370.785,1,0.100,18414.000,0.200,743.000,0.300,478.000,0.500,594.000,1.000,280.000,5.000,0
"03/02/08","01:16:22",20593.000,"cc",28286.373,1,0.100,18368.000,0.200,774.000,0.300,535.000,0.500,615.000,1.000,301.000,5.000,0
"03/02/08","01:16:28",20757.000,"cc",28302.543,1,0.100,18588.000,0.200,776.000,0.300,506.000,0.500,625.000,1.000,262.000,5.000,0
"03/02/08","01:16:34",20557.000,"cc",28337.262,1,0.100,18416.000,0.200,827.000,0.300,479.000,0.500,555.000,1.000,280.000,5.000,0
"03/02/08","01:16:40",20473.000,"cc",28353.910,1,0.100,18288.000,0.200,778.000,0.300,514.000,0.500,608.000,1.000,285.000,5.000,0
"03/02/08","01:16:46",20503.000,"cc",28248.602,1,0.100,18369.000,0.200,745.000,0.300,484.000,0.500,618.000,1.000,287.000,5.000,0
"03/02/08","01:16:52",20746.000,"cc",28299.510,1,0.100,18622.000,0.200,783.000,0.300,487.000,0.500,553.000,1.000,301.000,5.000,0
"03/02/08","01:16:58",20648.000,"cc",28255.898,1,0.100,18523.000,0.200,765.000,0.300,458.000,0.500,603.000,1.000,299.000,5.000,0
"03/02/08","01:17:04",20632.000,"cc",28357.301,1,0.100,18554.000,0.200,776.000,0.300,465.000,0.500,573.000,1.000,264.000,5.000,0
"03/02/08","01:17:10",20546.000,"cc",28328.367,1,0.100,18443.000,0.200,753.000,0.300,490.000,0.500,592.000,1.000,268.000,5.000,0
"03/02/08","01:17:16",20251.000,"cc",28334.727,1,0.100,18079.000,0.200,799.000,0.300,505.000,0.500,582.000,1.000,286.000,5.000,0
"03/02/08","01:17:22",20325.000,"cc",28266.053,1,0.100,18258.000,0.200,721.000,0.300,526.000,0.500,556.000,1.000,264.000,5.000,0
"03/02/08","01:17:28",20607.000,"cc",28270.523,1,0.100,18448.000,0.200,787.000,0.300,490.000,0.500,591.000,1.000,291.000,5.000,0